STARLINK-5730, 55611

Orbit data source: Space-Track

STARLINK-5730, 55611 is a payload satellite owned by SpaceX/Seattle (US) in LEO that was launched on Sun, 12 Feb 2023 UTC via an FALCON 9 launch vehicle from the Air Force Eastern Test Range (AFETR). Payload-class satellites include a variety of spacecraft equipped with specific instruments for various scientific and technological missions. These include communications satellites like Starlink; space stations such as the ISS; scientific satellites like the Hubble; Earth observation satellites from companies like Planet Labs, Umbra, and HawkEye 360; GPS; miniature CubeSats for education and research; and military/defense satellites.

Loading next visibility...
Identifier
55611, 2023-020AU
Orbit
LEO
Country
Flag of USUS
Related business
Manufacturer
SpaceX/Seattle
Mission
Operational Commercial Communications
Bus & Motor
STARLINK, Unknown motor
Mass
305 kg wet, ~290 kg dry
Launch date (UTC)
2023-02-12 (4 years ago)
Launch vehicle
FALCON 9
Launch site
Air Force Eastern Test Range (AFETR)
Object type
Payload
Rocket body
Debris
Shape & HBR
Box + 1 Pan, 10.1 m
Radar Cross Section
13.562 m², Large (>1 m²)

Expand to show TLE details & history
Last TLE update: 8 hours ago

TLE from 8 hours ago
0 STARLINK-5730
1 55611U 23020AU  26264.18502388  .00000400  00000-0  24070-4 0  9991
2 55611  43.0051 330.5212 0001787 273.9194  86.1453 15.27576778198939
Epoch: 2026-09-21T04:26Z
TLE epoch observation values (Epoch: 2026-09-21T04:26:26.063Z)
Latitude
-0.00004°
Longitude
-96.15592°
Altitude
482.753 km
Speed
7.626 km/s
True Right ascension
22h 02m 05s
True Declination
0° 00' 00"
Sunlit
Object was in full shadow at epoch
Visualization orbit readout
Latitude
Unknown
Longitude
Unknown
Altitude
Unknown
Speed
Unknown
Apparent Right ascension
Unknown
Apparent Declination
Unknown
Sunlit
N/A
Visualization observer readout
Local Sidereal Time
04:58:40
Azimuth
Unknown
Elevation
Unknown
Doppler factor
Unknown
Orbital elements
Apogee altitude
486.23 km
Perigee altitude
483.777 km
Semi-major axis
6,863.14 km
Eccentricity
0.00018
Inclination
43.0051°
RAAN
330.5212°
Arg. of periapsis
273.9194°
True anomaly
86.16573°
Mean anomaly
86.1453°
Eccentric anomaly
86.15552°
Mean motion
3.81732 °/min
Orbital period
94.31 mins
BSTAR
0.00002407
Loading maneuver chart data...
Computing Atmospheric mass density...
Loading historical data...
Loading historical data...
Loading historical data...
Loading historical data...
Loading historical data...
Loading historical data...
Loading historical data...

Documentation

Showing up to 5 results
|